Cherokee, IA

7:15 AM CST on December 10, 2019 (GMT -0600)
Cherokee Municipal

Weather History for KCKP - October, 2019

Change the Weather History Date:

Tuesday, October 22, 2019

  Actual Average Record
Temperature  
Mean Temperature 42 °F -  
Max Temperature 51 °F 60 °F 79 °F (1963)
Min Temperature 33 °F 34 °F 15 °F (1976)
Degree Days  
Heating Degree Days 22    
Moisture  
Dew Point 32 °F    
Average Humidity 70    
Maximum Humidity 94    
Minimum Humidity 41    
Precipitation  
Precipitation 0.00 in - - ()
Sea Level Pressure  
Sea Level Pressure 29.76 in    
Wind  
Wind Speed 16 mph ()    
Max Wind Speed 26 mph    
Max Gust Speed 39 mph    
Visibility 10.0 miles    
Events      
Averages and records for this station are not official NWS values.
T = Trace of Precipitation, MM = Missing Value Source: Averaged Metar Reports

Daily Weather History Graph

Daily Weather History Graph

Search for Another Location

Airport or City:

Astronomy

Oct. 22, 2019 Rise Set
Actual Time 7:43 AM CDT 6:29 PM CDT
Civil Twilight 7:14 AM CDT 6:57 PM CDT
Nautical Twilight 6:41 AM CDT 7:30 PM CDT
Astronomical Twilight 6:09 AM CDT 8:03 PM CDT
Moon 12:43 AM CDT (10/22) 3:49 PM CDT (10/22)
Length of Visible Light 11h 43m
Length of Day
10h 45m
Last Quarter, 37% of the Moon is Illuminated
Oct 22
Last Quarter
Oct 27
New
Nov 4
First Quarter
Nov 12
Full
Nov 19
Last Quarter

Hourly Weather History & Observations

Time (CDT) Temp. Windchill Dew Point Humidity Pressure Visibility Wind Dir Wind Speed Gust Speed Precip Events Conditions
12:15 AM 43.3 °F 34.0 °F 41.0 °F 91% 29.57 in 10.0 mi WNW 24.2 mph 31.1 mph N/A   Overcast
12:35 AM 43.2 °F 33.6 °F 40.1 °F 89% 29.58 in 10.0 mi WNW 25.3 mph 39.1 mph N/A   Overcast
12:55 AM 43.0 °F 33.8 °F 39.7 °F 88% 29.59 in 10.0 mi NW 23.0 mph 36.8 mph N/A   Overcast
1:15 AM 42.8 °F 33.8 °F 39.7 °F 89% 29.60 in 10.0 mi WNW 21.9 mph 29.9 mph N/A   Overcast
1:35 AM 43.2 °F 34.7 °F 39.4 °F 86% 29.61 in 10.0 mi NW 19.6 mph 34.5 mph N/A   Overcast
2:15 AM 42.8 °F 34.0 °F 39.2 °F 87% 29.62 in 10.0 mi WNW 20.7 mph 31.1 mph N/A   Overcast
2:35 AM 42.3 °F 33.6 °F 38.5 °F 86% 29.63 in 10.0 mi WNW 19.6 mph 33.4 mph N/A   Overcast
2:55 AM 41.9 °F 33.1 °F 37.4 °F 84% 29.64 in 10.0 mi WNW 19.6 mph 29.9 mph N/A   Overcast
3:15 AM 41.2 °F 32.1 °F 36.9 °F 85% 29.65 in 10.0 mi WNW 19.6 mph 32.2 mph N/A   Overcast
3:35 AM 40.6 °F 32.3 °F 36.5 °F 85% 29.66 in 10.0 mi WNW 16.1 mph 26.5 mph N/A   Mostly Cloudy
3:55 AM 40.5 °F 32.1 °F 36.5 °F 86% 29.67 in 10.0 mi WNW 16.1 mph 20.7 mph N/A   Overcast
4:15 AM 40.3 °F 31.6 °F 36.0 °F 85% 29.67 in 10.0 mi WNW 17.3 mph 26.5 mph N/A   Overcast
4:35 AM 40.1 °F 32.0 °F 35.8 °F 85% 29.68 in 10.0 mi NW 15.0 mph 28.8 mph N/A   Overcast
4:55 AM 39.9 °F 30.8 °F 35.6 °F 85% 29.68 in 10.0 mi WNW 18.4 mph 28.8 mph N/A   Overcast
5:15 AM 39.4 °F 30.7 °F 35.2 °F 85% 29.69 in 10.0 mi WNW 16.1 mph 26.5 mph N/A   Overcast
5:35 AM 38.8 °F 28.5 °F 34.7 °F 85% 29.69 in 10.0 mi WNW 21.9 mph 28.8 mph N/A   Overcast
5:55 AM 38.3 °F 28.7 °F 33.8 °F 84% 29.70 in 10.0 mi WNW 18.4 mph 27.6 mph N/A   Overcast
6:15 AM 38.3 °F 28.4 °F 33.8 °F 84% 29.70 in 10.0 mi WNW 19.6 mph 33.4 mph N/A   Overcast
6:35 AM 37.4 °F 27.5 °F 33.3 °F 85% 29.71 in 10.0 mi WNW 18.4 mph 28.8 mph N/A   Scattered Clouds
6:55 AM 37.4 °F 26.9 °F 33.4 °F 86% 29.72 in 10.0 mi WNW 20.7 mph 28.8 mph N/A   Scattered Clouds
7:15 AM 36.7 °F 26.9 °F 32.7 °F 86% 29.73 in 10.0 mi WNW 17.3 mph 27.6 mph N/A   Scattered Clouds
7:35 AM 36.1 °F 26.2 °F 32.0 °F 85% 29.73 in 10.0 mi WNW 17.3 mph 25.3 mph N/A   Clear
7:55 AM 35.8 °F 25.1 °F 32.0 °F 86% 29.74 in 10.0 mi WNW 19.6 mph 27.6 mph N/A   Clear
8:15 AM 35.6 °F 25.9 °F 32.0 °F 87% 29.75 in 10.0 mi West 16.1 mph 26.5 mph N/A   Clear
8:35 AM 36.0 °F 25.6 °F 31.8 °F 85% 29.76 in 10.0 mi West 18.4 mph 25.3 mph N/A   Clear
8:55 AM 36.7 °F 26.9 °F 31.6 °F 82% 29.77 in 10.0 mi WNW 17.3 mph 24.2 mph N/A   Clear
9:15 AM 37.8 °F 29.0 °F 31.3 °F 77% 29.77 in 10.0 mi WNW 15.0 mph 24.2 mph N/A   Clear
9:35 AM 38.8 °F 29.7 °F 30.9 °F 73% 29.78 in 10.0 mi WNW 17.3 mph 26.5 mph N/A   Clear
9:55 AM 40.1 °F 31.3 °F 30.9 °F 70% 29.79 in 10.0 mi WNW 17.3 mph 27.6 mph N/A   Clear
10:15 AM 41.4 °F 34.0 °F 30.4 °F 65% 29.80 in 10.0 mi WNW 13.8 mph 32.2 mph N/A   Clear
10:35 AM 42.3 °F 33.6 °F 30.2 °F 62% 29.80 in 10.0 mi WNW 19.6 mph 29.9 mph N/A   Clear
10:55 AM 43.2 °F 35.0 °F 30.2 °F 60% 29.80 in 10.0 mi WNW 18.4 mph 29.9 mph N/A   Clear
11:15 AM 44.4 °F 36.6 °F 30.6 °F 58% 29.81 in 10.0 mi WNW 18.4 mph 29.9 mph N/A   Clear
11:35 AM 45.5 °F 37.6 °F 29.8 °F 54% 29.81 in 10.0 mi WNW 20.7 mph 31.1 mph N/A   Clear
11:55 AM 46.4 °F 38.7 °F 29.1 °F 51% 29.81 in 10.0 mi NW 20.7 mph 31.1 mph N/A   Clear
12:15 PM 47.3 °F - 29.1 °F 49% 29.81 in 10.0 mi WNW 17.3 mph 32.2 mph N/A   Clear
12:35 PM 48.2 °F - 29.1 °F 48% 29.82 in 10.0 mi WNW 18.4 mph 34.5 mph N/A   Clear
12:55 PM 48.7 °F - 30.4 °F 49% 29.82 in 10.0 mi NW 20.7 mph 34.5 mph N/A   Clear
1:15 PM 48.4 °F - 28.8 °F 47% 29.82 in 10.0 mi WNW 26.5 mph 35.7 mph N/A   Scattered Clouds
1:35 PM 48.4 °F - 28.2 °F 46% 29.81 in 10.0 mi NW 19.6 mph 34.5 mph N/A   Scattered Clouds
2:15 PM 50.0 °F - 30.4 °F 47% 29.81 in 10.0 mi WNW 16.1 mph 29.9 mph N/A   Scattered Clouds
2:35 PM 50.0 °F - 29.3 °F 45% 29.82 in 10.0 mi NW 19.6 mph 31.1 mph N/A   Scattered Clouds
2:55 PM 50.7 °F - 29.1 °F 43% 29.82 in 10.0 mi WNW 19.6 mph 31.1 mph N/A   Scattered Clouds
3:15 PM 51.4 °F - 29.1 °F 42% 29.82 in 10.0 mi WNW 23.0 mph 32.2 mph N/A   Mostly Cloudy
3:35 PM 50.7 °F - 28.9 °F 43% 29.82 in 10.0 mi WNW 20.7 mph 28.8 mph N/A   Scattered Clouds
3:55 PM 50.5 °F - 27.7 °F 41% 29.82 in 10.0 mi WNW 23.0 mph 36.8 mph N/A   Scattered Clouds
4:15 PM 50.2 °F - 28.8 °F 44% 29.82 in 10.0 mi WNW 13.8 mph 26.5 mph N/A   Scattered Clouds
4:35 PM 50.5 °F - 28.6 °F 43% 29.82 in 10.0 mi WNW 16.1 mph 34.5 mph N/A   Clear
4:55 PM 50.7 °F - 29.8 °F 45% 29.82 in 10.0 mi WNW 11.5 mph 24.2 mph N/A   Scattered Clouds
5:15 PM 49.6 °F - 30.0 °F 47% 29.82 in 10.0 mi West 15.0 mph 18.4 mph N/A   Scattered Clouds
5:35 PM 49.6 °F - 29.8 °F 47% 29.83 in 10.0 mi WNW 10.4 mph 25.3 mph N/A   Scattered Clouds
6:15 PM 49.3 °F - 30.2 °F 48% 29.83 in 10.0 mi West 10.4 mph 16.1 mph N/A   Mostly Cloudy
6:35 PM 48.6 °F - 30.6 °F 50% 29.83 in 10.0 mi West 8.1 mph 16.1 mph N/A   Mostly Cloudy
6:55 PM 46.6 °F - 31.1 °F 55% 29.84 in 10.0 mi West 9.2 mph - N/A   Scattered Clouds
7:15 PM 45.9 °F 42.3 °F 31.1 °F 56% 29.83 in 10.0 mi West 6.9 mph - N/A   Clear
7:35 PM 43.9 °F 41.3 °F 31.1 °F 61% 29.83 in 10.0 mi West 4.6 mph - N/A   Clear
7:55 PM 40.5 °F - 31.5 °F 70% 29.83 in 10.0 mi Calm Calm - N/A   Scattered Clouds
8:15 PM 40.1 °F - 31.5 °F 71% 29.83 in 10.0 mi Calm Calm - N/A   Scattered Clouds
8:35 PM 37.9 °F - 31.8 °F 79% 29.84 in 10.0 mi Calm Calm - N/A   Clear
8:55 PM 38.5 °F - 32.0 °F 78% 29.84 in 10.0 mi Calm Calm - N/A   Clear
9:35 PM 37.2 °F - 32.0 °F 81% 29.83 in 10.0 mi Calm Calm - N/A   Clear
9:55 PM 34.9 °F - 32.0 °F 89% 29.83 in 10.0 mi Calm Calm - N/A   Clear
10:15 PM 34.5 °F - 32.0 °F 90% 29.83 in 10.0 mi Calm Calm - N/A   Clear
10:35 PM 34.2 °F - 32.0 °F 92% 29.84 in 10.0 mi Calm Calm - N/A   Clear
10:55 PM 34.5 °F - 32.0 °F 90% 29.84 in 10.0 mi Calm Calm - N/A   Clear
11:15 PM 34.0 °F - 32.0 °F 92% 29.84 in 10.0 mi Calm Calm - N/A   Clear
11:35 PM 33.6 °F - 32.0 °F 94% 29.83 in 10.0 mi Calm Calm - N/A   Clear